• en France
  • Liste des pays
  • À 7 jours
  • Température de l'eau
  • Carte satellitaire
  • Carte météo
  • Widgets météo
  • user-avatar
    Se connecter

    Météo par heure à Klagenfurt

    Ce jour, 16 Octobre, Mardi

    Heure Température Précipitation Vent Pression Humidité
    00:00 +8°C° 0 mm 1 m/s 692 mmHg 88%
    01:00 +7°C° 0 mm 0 m/s 692 mmHg 88%
    02:00 +7°C° 0 mm 0 m/s 692 mmHg 88%
    03:00 +8°C° 0 mm 1 m/s 692 mmHg 89%
    04:00 +8°C° 0 mm 1 m/s 692 mmHg 89%
    05:00 +8°C° 0 mm 1 m/s 692 mmHg 89%
    06:00 +8°C° 0 mm 1 m/s 692 mmHg 89%
    07:00 +8°C° 0 mm 1 m/s 692 mmHg 88%
    08:00 +9°C° 0 mm 0 m/s 693 mmHg 81%
    09:00 +12°C° 0 mm 0 m/s 693 mmHg 74%
    10:00 +14°C° 0 mm 0 m/s 693 mmHg 67%
    11:00 +15°C° 0 mm 0 m/s 693 mmHg 65%
    12:00 +18°C° 0 mm 1 m/s 694 mmHg 63%
    13:00 +18°C° 0 mm 1 m/s 694 mmHg 61%
    14:00 +18°C° 0 mm 1 m/s 693 mmHg 65%
    15:00 +16°C° 0 mm 1 m/s 693 mmHg 69%
    16:00 +16°C° 0 mm 1 m/s 693 mmHg 73%
    17:00 +14°C° 0 mm 1 m/s 693 mmHg 79%
    18:00 +11°C° 0 mm 0 m/s 693 mmHg 86%
    19:00 +10°C° 0 mm 0 m/s 692 mmHg 92%
    20:00 +9°C° 0 mm 0 m/s 692 mmHg 92%
    21:00 +9°C° 0 mm 0 m/s 693 mmHg 93%
    22:00 +9°C° 0 mm 0 m/s 693 mmHg 93%
    23:00 +9°C° 0 mm 0 m/s 692 mmHg 93%

    Demain, 17 Octobre, Mercredi

    Heure Température Précipitation Vent Pression Humidité
    00:00 +9°C° 0 mm 0 m/s 692 mmHg 93%
    01:00 +9°C° 0 mm 1 m/s 692 mmHg 93%
    02:00 +9°C° 0 mm 1 m/s 692 mmHg 93%
    03:00 +9°C° 0 mm 1 m/s 692 mmHg 93%
    04:00 +9°C° 0 mm 1 m/s 692 mmHg 92%
    05:00 +9°C° 0.1 mm 0 m/s 692 mmHg 92%
    06:00 +9°C° 0.1 mm 0 m/s 692 mmHg 91%
    07:00 +9°C° 0.1 mm 0 m/s 692 mmHg 91%
    08:00 +10°C° 0.7 mm 0 m/s 692 mmHg 89%
    09:00 +11°C° 0.7 mm 0 m/s 692 mmHg 87%
    10:00 +13°C° 0.7 mm 1 m/s 692 mmHg 85%
    11:00 +13°C° 1.3 mm 1 m/s 692 mmHg 87%
    12:00 +13°C° 1.3 mm 1 m/s 692 mmHg 88%
    13:00 +13°C° 1.3 mm 1 m/s 692 mmHg 89%
    14:00 +13°C° 0.7 mm 1 m/s 692 mmHg 90%
    15:00 +13°C° 0.7 mm 1 m/s 691 mmHg 91%
    16:00 +12°C° 0.7 mm 1 m/s 691 mmHg 91%
    17:00 +12°C° 0.3 mm 1 m/s 691 mmHg 93%
    18:00 +10°C° 0.3 mm 0 m/s 691 mmHg 94%
    19:00 +10°C° 0.3 mm 0 m/s 691 mmHg 95%
    20:00 +10°C° 0.3 mm 0 m/s 691 mmHg 95%
    21:00 +9°C° 0.3 mm 0 m/s 691 mmHg 95%
    22:00 +10°C° 0.3 mm 1 m/s 691 mmHg 95%
    23:00 +10°C° 0.1 mm 1 m/s 691 mmHg 95%

    Après-demain, 18 Octobre, Jeudi

    Heure Température Précipitation Vent Pression Humidité
    00:00 +10°C° 0.1 mm 1 m/s 691 mmHg 95%
    01:00 +10°C° 0.1 mm 1 m/s 691 mmHg 95%
    02:00 +9°C° 0.1 mm 1 m/s 691 mmHg 95%
    03:00 +9°C° 0.1 mm 1 m/s 691 mmHg 95%
    04:00 +9°C° 0.1 mm 1 m/s 690 mmHg 94%
    05:00 +9°C° 0.1 mm 1 m/s 690 mmHg 94%
    06:00 +9°C° 0.1 mm 1 m/s 691 mmHg 94%
    07:00 +9°C° 0.1 mm 1 m/s 691 mmHg 93%
    08:00 +11°C° 0 mm 1 m/s 691 mmHg 87%
    09:00 +14°C° 0 mm 1 m/s 691 mmHg 80%
    10:00 +16°C° 0 mm 1 m/s 692 mmHg 74%
    11:00 +18°C° 0 mm 1 m/s 692 mmHg 70%
    12:00 +19°C° 0 mm 1 m/s 692 mmHg 65%
    13:00 +20°C° 0 mm 1 m/s 692 mmHg 61%
    14:00 +19°C° 0 mm 1 m/s 692 mmHg 65%
    15:00 +18°C° 0 mm 1 m/s 692 mmHg 69%
    16:00 +18°C° 0 mm 1 m/s 691 mmHg 73%
    17:00 +15°C° 0 mm 1 m/s 691 mmHg 79%
    18:00 +13°C° 0 mm 1 m/s 691 mmHg 85%
    19:00 +12°C° 0 mm 1 m/s 691 mmHg 91%
    20:00 +11°C° 0 mm 1 m/s 692 mmHg 92%
    21:00 +11°C° 0 mm 1 m/s 692 mmHg 93%
    22:00 +11°C° 0 mm 1 m/s 692 mmHg 93%
    23:00 +11°C° 0 mm 1 m/s 692 mmHg 94%

    19 Octobre, Vendredi

    Heure Température Précipitation Vent Pression Humidité
    00:00 +11°C° 0 mm 1 m/s 692 mmHg 94%
    01:00 +10°C° 0 mm 1 m/s 692 mmHg 94%
    02:00 +10°C° 0 mm 1 m/s 692 mmHg 94%
    03:00 +10°C° 0 mm 1 m/s 692 mmHg 95%
    04:00 +10°C° 0 mm 1 m/s 692 mmHg 95%
    05:00 +10°C° 0 mm 1 m/s 692 mmHg 95%
    06:00 +10°C° 0 mm 1 m/s 692 mmHg 95%
    07:00 +9°C° 0 mm 1 m/s 692 mmHg 95%
    08:00 +12°C° 0 mm 1 m/s 693 mmHg 87%
    09:00 +14°C° 0 mm 1 m/s 693 mmHg 79%
    10:00 +16°C° 0 mm 1 m/s 694 mmHg 71%
    11:00 +18°C° 0 mm 1 m/s 694 mmHg 67%
    12:00 +18°C° 0 mm 1 m/s 694 mmHg 63%
    13:00 +19°C° 0 mm 1 m/s 694 mmHg 59%
    14:00 +18°C° 0 mm 1 m/s 694 mmHg 63%
    15:00 +18°C° 0 mm 1 m/s 693 mmHg 67%
    16:00 +16°C° 0 mm 1 m/s 693 mmHg 71%
    17:00 +14°C° 0 mm 1 m/s 693 mmHg 77%
    18:00 +12°C° 0 mm 1 m/s 693 mmHg 83%
    19:00 +10°C° 0 mm 0 m/s 693 mmHg 89%
    20:00 +9°C° 0 mm 0 m/s 693 mmHg 90%
    21:00 +9°C° 0 mm 0 m/s 693 mmHg 91%
    22:00 +9°C° 0 mm 0 m/s 694 mmHg 92%
    23:00 +9°C° 0 mm 1 m/s 694 mmHg 92%

    20 Octobre, Samedi

    Heure Température Précipitation Vent Pression Humidité
    00:00 +9°C° 0 mm 1 m/s 693 mmHg 93%
    01:00 +9°C° 0 mm 1 m/s 693 mmHg 93%
    02:00 +9°C° 0 mm 1 m/s 693 mmHg 93%
    03:00 +8°C° 0 mm 1 m/s 693 mmHg 93%
    04:00 +8°C° 0 mm 1 m/s 693 mmHg 94%
    05:00 +8°C° 0 mm 1 m/s 693 mmHg 93%
    06:00 +8°C° 0 mm 1 m/s 693 mmHg 93%
    07:00 +8°C° 0 mm 1 m/s 694 mmHg 93%
    08:00 +11°C° 0 mm 1 m/s 694 mmHg 84%
    09:00 +13°C° 0 mm 1 m/s 695 mmHg 75%
    10:00 +16°C° 0 mm 1 m/s 695 mmHg 66%
    11:00 +16°C° 0 mm 1 m/s 695 mmHg 62%
    12:00 +18°C° 0 mm 1 m/s 695 mmHg 59%
    13:00 +19°C° 0 mm 1 m/s 695 mmHg 55%
    14:00 +18°C° 0.1 mm 1 m/s 695 mmHg 60%
    15:00 +16°C° 0.1 mm 1 m/s 695 mmHg 64%
    16:00 +16°C° 0.1 mm 1 m/s 694 mmHg 69%
    17:00 +14°C° 0.1 mm 1 m/s 694 mmHg 75%
    18:00 +12°C° 0.1 mm 1 m/s 694 mmHg 82%
    19:00 +10°C° 0.1 mm 1 m/s 694 mmHg 88%
    20:00 +10°C° 0 mm 1 m/s 694 mmHg 89%
    21:00 +10°C° 0 mm 1 m/s 695 mmHg 89%
    22:00 +9°C° 0 mm 1 m/s 695 mmHg 90%
    23:00 +9°C° 0 mm 1 m/s 695 mmHg 91%

    21 Octobre, Dimanche

    Heure Température Précipitation Vent Pression Humidité
    00:00 +8°C° 0 mm 1 m/s 695 mmHg 92%
    01:00 +8°C° 0 mm 1 m/s 694 mmHg 93%
    02:00 +8°C° 0 mm 1 m/s 694 mmHg 93%
    03:00 +8°C° 0 mm 1 m/s 694 mmHg 92%
    04:00 +7°C° 0 mm 1 m/s 694 mmHg 92%
    05:00 +7°C° 0 mm 1 m/s 694 mmHg 92%
    06:00 +7°C° 0 mm 1 m/s 695 mmHg 91%
    07:00 +7°C° 0 mm 1 m/s 695 mmHg 91%
    08:00 +9°C° 0 mm 1 m/s 695 mmHg 83%
    09:00 +11°C° 0 mm 1 m/s 695 mmHg 75%
    10:00 +13°C° 0 mm 1 m/s 696 mmHg 67%
    11:00 +14°C° 0 mm 1 m/s 696 mmHg 63%
    12:00 +14°C° 0 mm 1 m/s 695 mmHg 59%
    13:00 +15°C° 0 mm 1 m/s 695 mmHg 55%
    14:00 +14°C° 0 mm 1 m/s 695 mmHg 59%
    15:00 +13°C° 0 mm 1 m/s 695 mmHg 62%
    16:00 +13°C° 0 mm 1 m/s 694 mmHg 66%
    17:00 +11°C° 0 mm 1 m/s 694 mmHg 73%
    18:00 +9°C° 0 mm 1 m/s 694 mmHg 81%
    19:00 +7°C° 0 mm 1 m/s 694 mmHg 88%
    20:00 +7°C° 0 mm 1 m/s 694 mmHg 89%
    21:00 +6°C° 0 mm 1 m/s 694 mmHg 89%
    22:00 +6°C° 0 mm 1 m/s 694 mmHg 90%
    23:00 +6°C° 0 mm 1 m/s 694 mmHg 90%
    Voir plus